星链-3183 (STARLINK-3183 )

导读 | 星芒AI

STARLINK-3183 是 SpaceX 星链(Starlink)卫星互联网项目中的第 3183 颗卫星。该卫星属于低轨通信卫星,旨在为全球用户提供高速互联网服务。它于近期由猎鹰九号火箭发射升空,部署在近地轨道上,与其他星链卫星协同工作,提升网络覆盖与连接稳定性。星链项目致力于改善偏远地区网络接入,支持全球通信需求。

基本信息
目录编号:
51134
目录名称:
STARLINK-3183
国际标识:
2022-005AG
轨道中心:
EARTH
卫星名称:
星链-3183
卫星全名:
星链-3183 (STARLINK-3183 )
卫星状态:
在轨 (已飞行1383 天)
发射日期:
2022-01-19 UTC
国别 :
美国 (US)
星等 :
--
轨道信息
数据来源 国际轨道数据
星历时间: 2025-11-02T00:00:02+0800
18小时前
查看轨道信息
半长轴: 6718.891km
偏心率: 0.0000862
轨道倾角: 53.216°
近地点辐角 127.920°
升交点赤经 136.415°
平近点角 104.018°
近地点: 340.176km
远地点: 341.336km
周期: 91.349分钟
每日圈数: 15.763637
详细信息
固有亮度:
5
最大亮度:
2.5
卫星平台:
Starlink v1.5
覆盖范围:
全球
运营商:
太空探索技术公司
运营商所在国:
美国
制造商(研发单位):
太空探索技术公司
制造商所在国:
美国
使用方式:
暂无
卫星简介
星链(Starlink)计划是由太空探索技术公司(SpaceX)提出的一个巨型低轨卫星互联网星座项目,计划在2019年至2024年间在太空搭建由约1.2万颗卫星组成的“星链”网络,其中1584颗将部署在地球上空550千米处的近地轨道,并从2020年开始工作。该卫星仍在工作。
2D轨道图
3D轨道图
轨道高度分析图
轨道倾角分析图
轨道综合分析图
查看轨道综合分析图